Wind_Speed
10 13 15 16 17 18 19 19 19 19 20 20 19 19 19 18 16 14 13 10 7 7 7 9 9 8 8 8 8 6 6 7 7 8 9 7 6 5 3 3 4 7 11 11 9 9 8 7 6 4 3 2 1 2 3 4 6 7 8 9 8 7 7 9 9 8 7 7 7 7 8 7 7 7 8 8 9 10 12 12 13 13 13 13 14
11 14 15 14 15 18 19 20 22 21 21 22 20 19 18 17 16 13 12 10 9 8 7 8 10 10 9 8 8 7 7 9 8 7 9 9 8 7 5 5 4 5 7 10 11 9 8 9 7 4 5 4 2 2 2 3 5 7 10 11 11 9 8 9 9 7 7 6 6 7 7 7 7 7 7 8 9 11 12 12 13 13 13 13 14
9 11 14 12 11 17 20 21 24 23 21 21 21 20 18 17 16 12 10 10 10 11 9 7 8 8 9 9 9 8 8 9 9 8 9 10 10 8 7 6 5 5 6 9 12 12 9 10 8 6 6 5 4 3 2 2 3 7 10 11 11 10 9 8 7 7 6 6 6 6 6 6 7 7 7 8 9 11 12 12 13 13 13 14 15
7 8 11 13 12 13 18 21 25 23 21 20 19 18 18 17 15 13 11 10 8 10 9 7 7 7 8 10 10 9 9 9 9 9 9 11 11 10 9 7 7 8 8 9 12 14 12 11 9 8 7 5 5 4 3 2 2 8 11 11 11 10 8 7 7 6 6 5 5 5 5 6 6 7 7 8 9 10 11 12 13 13 13 14 14
7 6 8 11 11 9 11 16 21 22 22 19 16 14 15 15 14 14 12 10 8 7 7 7 7 7 8 9 11 11 9 9 10 10 11 11 11 11 10 9 8 8 9 10 11 13 14 15 11 9 9 7 6 5 5 4 3 8 11 11 11 9 8 6 6 6 5 4 4 4 4 5 6 6 7 8 9 10 11 12 12 12 13 14 14
4 5 6 6 7 7 5 6 12 17 19 17 14 12 13 13 15 14 11 9 8 7 6 7 7 7 8 10 11 13 12 10 11 12 12 12 11 11 11 9 9 9 10 11 11 11 14 17 15 11 11 10 8 6 6 6 5 8 11 11 10 9 7 6 6 6 5 5 4 3 3 4 5 6 7 8 9 9 10 11 12 12 13 13 14
5 5 7 6 5 5 4 3 5 9 13 15 13 13 12 10 11 11 10 10 8 8 7 7 7 7 9 11 11 12 14 13 12 12 13 13 13 12 10 8 10 11 10 11 12 11 12 16 17 15 13 11 10 8 7 6 6 8 11 10 9 8 6 5 7 7 5 5 4 3 2 3 4 5 7 7 8 9 10 11 11 12 13 13 13
4 5 5 5 5 6 6 5 4 5 9 12 12 12 9 8 9 9 9 10 7 7 8 8 8 8 8 11 12 11 12 14 13 12 12 13 15 14 11 9 11 10 7 10 12 10 10 13 16 17 16 14 11 10 8 7 6 9 11 9 9 8 6 5 7 6 4 5 5 3 2 2 3 5 6 7 7 8 9 10 11 12 13 13 13
2 2 3 3 5 6 6 5 4 6 7 8 10 11 8 7 10 9 8 8 7 8 9 10 10 11 10 10 12 13 12 14 14 14 14 14 15 15 13 12 12 9 8 11 11 11 11 12 15 16 18 18 15 12 10 9 8 8 10 10 10 9 6 5 8 6 4 5 5 3 2 2 3 4 5 6 6 7 9 9 10 12 12 13 13
4 2 2 2 2 4 4 4 6 8 9 8 8 9 9 9 10 11 10 9 9 10 9 8 9 11 13 12 11 12 14 13 14 16 16 16 16 16 15 15 14 12 12 11 9 10 12 13 15 16 17 18 17 15 13 11 11 10 10 11 11 9 7 6 9 7 4 6 6 4 3 2 3 4 5 5 5 7 8 9 10 11 12 12 13
5 4 2 2 1 3 5 7 10 11 12 11 9 9 10 10 10 12 12 11 11 11 10 9 12 12 12 14 13 14 15 15 15 17 18 17 17 18 17 16 17 17 16 14 12 12 13 14 17 18 17 18 18 17 15 14 15 13 11 12 12 10 7 7 10 8 6 8 7 5 4 2 3 4 4 5 5 7 8 9 10 11 12 12 12
4 4 3 3 3 4 5 6 10 12 13 14 12 10 10 10 11 13 14 13 12 13 10 9 14 15 9 13 11 13 15 16 16 17 18 19 18 18 17 17 18 19 17 17 16 15 15 15 17 19 18 18 18 18 17 16 17 15 14 15 14 12 10 10 12 10 7 9 9 7 5 3 4 4 4 4 5 6 7 8 10 10 11 11 12
5 4 4 3 3 3 5 7 7 9 10 13 15 14 12 11 13 15 16 15 15 14 11 9 12 12 7 10 10 12 14 16 18 18 19 19 20 19 18 19 19 19 18 18 18 16 16 16 17 18 17 18 20 20 19 19 20 18 16 18 16 14 13 12 14 12 9 11 11 8 6 5 5 5 4 4 5 6 7 8 9 10 11 11 12
4 4 5 5 4 3 3 5 7 9 8 9 12 15 16 14 14 16 17 18 18 18 16 12 9 8 5 5 7 10 13 17 19 19 19 19 20 19 19 20 18 17 17 17 18 18 17 18 18 16 16 20 22 21 21 21 23 20 18 20 20 18 15 14 16 15 11 12 13 10 8 7 6 6 5 5 5 5 7 7 9 10 11 11 12
2 3 4 3 4 5 3 4 6 7 7 6 7 11 15 17 18 18 17 16 17 17 18 16 12 9 7 4 4 6 8 14 18 20 21 20 20 20 19 19 17 16 16 17 18 19 19 20 20 17 17 21 21 21 22 21 22 21 19 22 23 22 17 15 18 17 13 14 15 13 10 9 8 7 6 6 5 5 6 7 8 10 11 11 12
2 2 3 3 4 5 5 5 6 6 6 6 5 7 10 14 20 22 19 16 16 15 15 18 16 11 5 2 3 3 4 8 14 19 22 21 20 21 20 20 19 18 17 17 18 19 20 20 21 20 20 21 20 21 22 21 22 23 22 23 25 24 19 17 20 19 15 16 17 14 12 10 9 8 8 7 6 6 6 7 8 9 10 10 11
3 2 2 4 4 4 5 6 6 6 6 6 6 6 7 9 15 22 23 20 20 17 15 18 20 17 11 4 2 2 1 3 7 13 19 21 20 20 22 21 20 19 19 19 18 19 20 20 21 21 22 22 21 20 21 21 23 25 24 25 27 26 23 21 22 20 17 18 19 16 13 12 11 10 9 8 7 6 6 7 7 8 9 9 10
3 3 3 4 4 5 6 6 6 7 7 7 7 7 8 9 11 17 22 24 24 20 17 19 20 20 20 16 10 6 3 6 6 4 11 19 19 19 21 21 19 18 19 20 20 19 20 21 20 21 22 23 23 22 21 21 23 24 23 24 28 29 25 24 24 22 19 19 20 17 14 13 12 11 10 9 8 7 7 7 7 7 8 8 8
2 3 4 4 5 5 6 7 7 8 7 8 8 8 8 9 11 14 18 23 25 23 20 20 18 19 23 23 21 18 12 8 7 3 3 10 15 18 19 19 20 20 20 20 20 21 21 22 22 22 22 22 23 24 23 23 24 25 23 21 27 32 29 26 26 24 21 21 22 19 15 14 13 12 11 10 9 8 7 7 8 7 6 6 6
1 3 4 4 5 6 6 7 8 9 9 8 8 8 9 9 10 13 16 20 24 25 24 21 19 20 24 26 24 24 21 16 13 9 4 2 8 14 17 19 21 21 22 21 21 23 23 23 23 23 23 23 22 23 24 24 23 24 24 20 24 33 33 28 28 26 23 24 23 20 17 16 15 13 12 11 10 9 8 8 9 7 6 6 5
1 2 3 4 5 6 7 7 7 8 9 9 10 9 9 10 11 12 14 18 21 24 24 23 23 21 21 24 25 25 25 24 20 14 9 5 3 5 10 14 17 20 23 23 23 24 23 24 25 23 22 24 23 23 24 26 24 23 25 22 23 32 36 30 29 29 26 25 24 21 18 17 16 14 13 12 11 10 10 10 9 8 7 7 6
2 2 2 2 4 6 8 8 8 9 9 9 10 11 11 11 13 14 14 15 17 21 23 24 24 23 21 21 23 22 20 19 19 16 12 9 5 4 5 5 8 16 23 26 26 26 25 25 26 25 21 22 23 24 25 26 27 25 24 23 23 31 37 33 31 32 29 27 25 22 20 18 17 15 14 13 12 11 11 10 9 9 8 7 6
2 2 2 2 3 5 6 8 8 9 10 8 9 11 12 12 13 14 15 15 16 18 23 25 24 24 23 23 24 23 20 17 18 17 12 9 7 6 6 4 7 14 21 28 29 27 26 26 27 27 24 21 22 25 26 27 27 26 26 25 24 30 37 35 33 34 31 28 26 23 21 19 18 17 15 14 13 13 12 11 10 10 9 7 7
3 3 3 3 4 5 6 7 7 8 9 10 10 11 12 13 13 14 15 15 16 17 19 23 25 26 25 25 25 25 25 23 22 20 17 15 10 6 7 8 8 13 16 18 25 28 27 26 25 28 27 24 22 23 25 26 27 26 27 28 26 30 38 36 33 35 32 29 27 24 22 21 19 18 16 16 15 14 13 12 12 11 10 9 8
4 4 4 4 5 5 6 7 8 9 10 11 12 13 14 15 14 14 16 16 16 16 17 18 23 27 27 26 26 26 27 27 26 22 19 17 12 7 7 9 9 11 12 10 18 25 26 26 24 24 25 24 23 23 24 25 25 26 28 29 27 31 38 37 34 35 33 30 27 25 23 22 21 19 18 18 17 16 15 14 13 12 11 10 8
5 6 6 6 6 7 8 10 10 11 12 12 13 14 15 15 15 15 16 16 17 17 18 18 20 24 26 26 26 27 28 28 27 25 23 19 15 10 7 8 10 13 12 8 11 15 18 24 25 24 23 24 22 21 23 24 25 27 29 29 28 31 37 38 34 34 34 31 28 26 24 24 23 21 21 20 19 18 16 15 13 11 10 10 8
6 7 7 7 8 9 10 11 11 12 12 13 13 13 14 14 15 16 17 18 18 19 19 19 19 20 23 25 26 28 30 31 30 29 28 25 22 18 12 7 7 10 10 6 5 10 16 18 21 23 23 23 22 21 22 25 26 27 29 30 30 33 37 38 36 34 34 32 29 27 26 25 24 23 22 22 20 18 17 14 13 11 10 9 8
7 7 7 8 9 9 10 10 11 11 12 13 14 14 14 14 14 16 17 18 19 20 20 20 20 20 22 24 27 28 29 32 33 33 33 32 29 27 23 15 9 7 7 6 5 9 14 17 16 21 22 21 21 22 24 25 26 27 29 31 33 35 37 37 37 35 34 33 29 27 27 26 25 25 24 23 20 18 17 14 13 12 11 10 8
8 8 8 8 8 9 10 11 11 12 12 13 14 14 14 14 14 15 16 17 19 20 20 20 21 22 23 24 26 29 30 30 32 34 35 36 34 33 31 27 19 10 6 7 6 7 12 16 17 16 21 24 22 23 26 26 24 25 29 33 34 36 37 37 38 36 34 33 30 28 28 26 27 27 25 23 20 18 17 15 14 13 11 10 9
8 8 8 8 10 10 11 12 12 12 13 14 14 15 14 15 15 16 16 16 18 20 20 20 21 22 24 25 25 27 29 30 32 33 34 35 35 36 35 33 30 21 11 8 8 10 15 17 17 16 16 23 25 24 24 23 22 25 30 33 34 36 36 36 38 37 35 34 31 29 29 27 28 28 26 24 21 19 17 15 14 13 12 10 9
8 9 9 10 10 11 11 12 12 13 14 14 15 15 15 15 16 16 16 16 17 18 19 21 22 22 23 24 24 25 27 29 31 31 33 35 35 35 35 34 34 30 22 13 8 12 16 15 16 17 13 16 23 22 21 21 22 24 28 31 33 34 34 36 37 37 37 34 31 30 30 28 28 27 25 23 21 19 17 16 14 13 12 11 10
9 10 10 11 11 12 12 12 12 13 14 15 15 16 16 16 16 17 17 17 18 19 19 20 21 22 22 22 23 23 25 27 29 30 32 34 34 34 35 35 34 32 29 20 10 12 17 14 14 17 13 15 21 21 19 21 22 24 26 29 31 32 35 37 37 38 37 34 32 32 30 29 28 27 25 24 21 18 17 16 15 13 12 11 10
10 11 11 12 13 13 13 13 13 13 14 14 16 16 17 17 17 18 17 18 19 19 20 21 21 22 22 22 23 22 23 25 27 29 29 30 31 34 34 33 33 32 31 26 16 13 18 17 15 16 15 17 21 21 21 23 25 25 24 25 29 32 36 38 38 39 37 35 34 33 31 29 28 27 26 25 22 19 18 17 15 14 13 12 10
11 12 12 13 13 13 13 14 14 14 14 15 16 17 18 18 17 18 18 18 19 19 20 21 22 23 23 24 23 23 22 23 24 27 28 29 29 31 32 31 32 33 32 31 24 16 18 20 19 17 16 20 24 23 23 26 28 27 24 24 29 33 37 39 40 39 37 35 34 32 31 29 28 27 26 25 22 19 18 17 15 14 13 12 11
11 12 12 13 13 14 15 15 15 16 16 16 17 17 18 19 18 18 19 19 20 21 21 22 22 23 24 25 25 24 23 24 24 24 26 29 29 29 31 32 32 33 33 34 30 23 20 20 21 19 17 24 30 26 26 29 29 27 25 26 30 33 37 40 40 39 37 35 34 32 31 30 29 28 26 24 22 20 19 17 15 14 13 12 11
12 12 13 13 14 14 15 16 17 18 19 18 18 18 19 20 19 20 20 20 21 22 22 23 23 24 25 26 26 25 25 25 25 24 24 26 29 29 30 32 32 33 34 35 34 30 24 21 22 22 21 27 31 27 27 30 28 27 26 26 29 32 35 37 39 39 37 35 34 32 31 31 30 28 26 24 22 20 19 17 16 15 13 12 11
12 12 13 13 14 15 16 18 18 19 20 20 19 19 20 20 21 22 22 22 22 22 23 24 24 24 25 27 27 27 27 27 26 25 24 25 28 29 31 31 31 34 34 34 34 33 29 24 22 23 24 27 28 25 28 32 27 24 25 25 26 30 32 33 35 38 38 35 33 32 31 31 29 28 26 25 23 21 18 17 16 15 14 13 12
12 12 13 13 15 16 17 18 19 20 20 20 20 20 21 21 22 24 25 24 23 24 24 25 25 25 26 27 28 28 28 28 28 27 26 26 26 28 31 30 29 30 31 31 31 31 31 29 24 23 27 29 27 24 27 32 30 27 26 24 23 26 30 32 33 34 35 35 34 33 32 31 30 28 27 25 23 21 19 18 17 16 15 13 12
11 12 14 15 16 17 18 19 20 20 21 21 21 21 21 21 22 24 25 24 24 24 25 26 26 27 27 28 28 29 29 29 29 29 29 29 28 26 27 30 31 30 28 28 29 29 29 28 25 24 28 30 28 26 27 31 30 28 29 29 24 23 28 32 33 33 34 35 34 33 32 32 31 29 27 25 24 21 20 19 18 17 16 14 13
12 13 14 15 17 17 18 19 20 21 22 23 23 23 22 22 22 23 23 24 24 25 26 27 28 28 28 29 30 30 31 31 30 30 30 30 30 27 25 25 29 30 29 27 28 28 26 25 24 24 28 28 26 25 27 30 28 26 31 33 30 28 29 30 32 34 35 36 34 33 33 32 31 29 27 25 24 22 21 20 19 18 17 15 14
12 13 14 15 17 18 18 19 20 22 23 23 24 23 23 23 23 23 23 23 24 24 25 26 28 29 30 31 31 32 32 33 34 34 33 31 31 31 28 25 23 26 27 27 28 27 25 23 22 22 24 25 25 26 28 31 30 29 32 32 29 30 30 27 28 32 35 36 35 33 33 33 32 31 29 28 27 25 23 22 21 20 18 17 15
12 13 15 16 17 17 18 19 21 22 23 23 24 24 25 26 26 27 27 26 26 26 26 26 27 28 30 31 32 33 34 35 36 37 38 38 36 35 35 34 30 26 23 24 25 26 25 24 22 20 20 23 27 30 30 32 32 31 34 34 29 29 28 23 21 27 33 35 34 32 32 32 33 32 31 31 30 28 26 25 24 21 19 17 16
13 14 16 17 17 18 19 20 21 22 23 23 24 25 27 28 29 30 32 31 30 30 29 30 29 28 28 30 31 32 34 35 36 37 39 41 42 40 39 40 40 37 31 25 23 23 24 24 23 22 22 22 28 33 32 32 32 33 36 36 31 30 29 23 19 23 32 37 36 32 31 32 33 33 33 33 32 30 28 26 24 21 18 17 16
14 14 16 17 19 19 20 21 22 23 24 23 24 26 27 28 29 30 31 32 32 31 31 32 31 31 30 30 30 30 31 32 33 35 36 38 41 42 42 42 45 46 44 38 31 26 24 24 23 24 26 24 26 31 33 33 34 34 35 34 33 34 32 27 24 26 34 40 37 32 30 32 33 32 32 33 32 30 28 25 22 20 18 17 16
14 14 15 17 19 20 20 22 23 24 25 25 25 27 28 29 29 30 31 31 30 31 31 32 32 33 32 31 31 31 31 31 31 33 34 34 36 38 41 43 46 49 51 50 45 38 31 28 26 25 28 31 31 32 36 38 37 36 35 33 34 35 33 31 32 31 34 40 39 31 27 29 32 31 30 31 31 28 25 23 22 20 18 16 16
11 12 14 17 19 21 21 22 23 25 25 26 27 28 30 31 31 32 34 34 33 32 32 32 33 34 34 34 33 33 32 32 32 31 31 32 33 35 37 41 45 49 51 53 53 50 43 36 32 30 30 33 37 37 38 41 42 42 41 38 38 38 36 33 30 28 32 40 40 30 23 26 31 30 27 27 27 25 23 21 21 19 16 16 16
10 12 15 18 20 21 22 23 24 25 26 27 29 30 31 32 32 33 34 36 38 37 35 34 35 35 36 36 36 35 34 33 34 34 33 31 30 31 32 35 40 43 45 47 50 51 49 45 41 38 33 31 35 40 41 43 47 47 45 43 41 38 32 26 23 24 30 37 38 28 19 23 31 29 25 23 22 22 22 19 18 17 16 16 16
12 13 15 18 20 22 23 24 25 25 26 27 29 30 31 32 32 33 34 36 37 37 36 36 36 36 37 37 37 37 35 34 35 38 39 38 36 33 31 30 32 36 38 40 42 44 47 46 45 43 38 34 36 40 42 43 45 43 38 34 33 31 26 21 20 24 29 34 37 30 19 21 29 29 24 21 21 23 22 19 17 16 16 16 16
12 14 16 19 21 23 24 24 24 26 27 27 29 31 33 33 34 35 36 36 36 36 36 36 36 36 36 36 36 37 37 36 35 35 40 44 43 39 34 31 30 30 33 35 36 38 41 43 45 46 43 39 37 37 39 41 43 42 37 30 31 33 28 20 16 21 28 33 36 30 20 21 27 28 25 21 20 22 21 17 17 16 16 16 16
12 15 18 20 22 23 24 25 25 28 29 28 29 31 32 33 34 35 37 37 36 36 36 35 35 35 35 36 36 37 37 36 35 34 37 41 43 40 34 30 30 29 28 27 28 30 33 35 38 41 40 37 36 37 40 44 44 45 42 37 38 38 31 22 19 20 22 28 35 31 21 21 27 28 25 20 17 19 20 17 16 16 16 16 16
14 17 19 21 23 24 26 27 27 28 29 29 29 30 31 33 33 34 37 37 34 34 35 34 35 35 35 36 36 38 39 37 36 36 36 39 42 40 33 28 27 28 27 23 22 23 25 27 29 32 33 33 34 36 42 46 48 48 47 45 45 43 34 28 26 21 13 19 35 36 23 21 28 28 24 18 11 13 20 18 15 16 16 15 15
Wind_Direction
198 205 211 217 218 211 206 205 209 210 200 194 202 196 191 199 201 206 200 190 181 173 191 195 192 189 189 202 199 201 191 190 195 178 193 210 198 203 208 191 171 175 178 176 176 179 182 182 188 185 183 212 110 140 150 128 139 135 123 122 117 108 98 83 72 71 74 73 80 82 75 68 54 45 40 35 35 36 38 40 44 45 44 42 42
191 201 203 213 226 219 210 211 213 213 209 204 206 201 196 199 194 200 200 184 179 182 195 207 198 188 190 203 206 213 205 202 210 190 198 212 202 193 195 191 175 184 188 181 179 185 188 185 193 193 187 209 209 194 188 123 137 139 131 128 121 113 100 84 75 78 83 83 88 89 80 66 49 39 34 33 37 39 42 45 46 46 42 42 44
187 192 199 207 221 222 216 213 213 215 222 213 204 204 201 195 188 187 191 186 186 181 190 216 207 194 195 201 206 215 216 206 207 211 210 205 198 188 190 198 189 186 192 186 181 182 187 191 197 198 197 201 198 224 235 132 149 148 138 132 127 119 107 88 81 88 90 88 93 95 80 61 42 31 31 36 41 44 47 49 47 46 44 43 45
204 184 197 208 204 214 220 217 213 218 234 222 198 202 201 194 191 189 189 190 186 178 185 209 219 221 214 207 202 208 223 211 204 218 221 209 203 199 197 199 195 193 198 196 191 189 186 192 205 203 199 201 197 216 216 192 181 158 146 137 132 126 115 94 92 107 103 95 98 97 77 53 36 29 37 43 46 49 50 50 48 47 46 46 47
237 207 198 208 202 212 225 220 215 220 236 227 202 204 201 198 199 193 193 187 174 180 192 198 217 237 234 222 205 203 220 218 214 221 223 220 212 209 206 201 202 202 201 200 202 203 192 191 202 202 201 205 206 212 199 212 220 170 154 141 136 130 121 106 108 120 112 115 115 102 73 49 34 32 46 50 50 54 53 52 51 50 49 48 50
273 242 227 219 205 218 240 236 226 226 232 223 208 205 197 197 199 194 193 181 169 188 210 207 217 244 253 250 219 200 208 220 224 219 225 229 216 210 203 202 212 202 196 201 207 213 202 198 198 197 205 205 206 211 194 206 226 183 160 145 140 135 128 119 130 133 120 129 131 109 72 45 36 42 51 53 55 57 56 56 56 54 53 52 53
301 281 251 243 221 214 220 215 216 228 229 218 212 206 194 197 202 196 188 183 185 192 207 219 221 232 245 258 246 210 201 213 223 217 226 231 219 219 212 207 212 199 198 210 212 212 209 208 204 198 205 206 202 207 201 206 219 190 168 152 145 143 137 134 143 140 127 141 144 127 83 45 45 55 56 57 60 58 57 59 59 59 57 56 57
314 304 281 268 257 236 227 217 189 204 215 205 205 206 203 207 203 196 188 190 198 196 206 220 225 232 233 245 255 244 211 204 215 218 222 225 221 226 225 212 210 208 222 224 214 211 211 216 214 208 208 208 200 200 206 209 207 192 178 167 157 151 140 141 154 148 137 154 156 146 108 62 65 66 62 63 64 61 61 63 63 63 62 61 60
17 321 319 313 290 268 251 252 232 223 221 204 205 211 216 216 200 193 197 205 213 216 215 206 210 222 222 230 245 256 240 210 210 216 220 224 221 223 225 220 215 216 224 220 217 223 222 218 219 217 215 215 209 201 203 203 203 199 189 180 167 158 151 157 167 160 153 171 172 164 148 93 88 79 73 73 70 66 66 67 66 66 66 64 62
36 23 340 357 317 284 263 257 246 240 240 226 211 212 217 218 207 198 197 212 227 240 247 229 229 225 211 215 224 241 251 236 220 216 219 224 218 219 224 220 219 221 222 222 226 236 233 222 218 220 221 222 217 208 202 197 201 205 201 191 177 165 164 172 177 176 176 180 182 179 171 133 108 93 85 83 77 73 71 70 70 69 69 68 65
37 40 22 45 7 290 277 262 255 254 253 245 227 216 220 220 217 211 205 214 226 244 269 274 274 264 214 202 211 219 235 243 233 222 223 226 219 217 220 220 221 221 222 224 228 238 238 224 214 215 219 222 220 214 205 196 196 201 207 201 188 178 179 183 183 188 191 181 183 189 186 161 128 107 99 97 85 79 76 74 74 71 71 71 69
19 29 32 40 26 350 331 299 273 268 260 253 247 233 230 227 223 226 223 223 227 237 258 276 288 289 231 195 207 214 220 233 235 228 227 227 224 220 217 221 220 214 215 221 223 230 234 225 214 213 218 220 220 217 209 202 196 196 205 203 193 191 196 195 191 194 192 183 186 196 193 174 146 124 114 111 96 86 82 78 77 75 74 74 72
356 357 353 3 11 6 344 334 312 295 275 259 253 241 235 232 227 233 236 234 235 236 244 257 279 291 245 205 215 215 217 226 228 231 231 228 227 225 221 225 221 213 214 217 213 214 225 226 216 215 220 219 217 216 215 214 209 207 207 199 195 200 201 196 193 196 194 187 190 198 196 181 161 144 134 127 113 97 88 85 82 80 78 76 73
4 348 340 338 341 345 326 326 322 315 309 282 262 247 238 237 232 234 238 236 238 240 241 245 259 275 266 250 238 223 223 226 222 225 231 229 225 224 227 230 223 213 212 213 210 211 218 222 218 220 222 218 219 220 222 222 218 218 214 202 198 199 199 196 194 195 196 192 193 199 197 183 170 157 152 146 131 112 97 91 87 84 82 78 75
341 336 335 329 329 334 327 317 311 311 315 309 285 259 245 240 236 236 240 238 236 239 238 234 245 267 283 290 247 219 221 229 226 223 226 229 223 219 226 232 226 216 214 216 217 216 216 218 219 221 216 215 222 223 222 220 217 217 215 210 205 195 194 198 192 191 196 196 196 199 197 184 175 166 162 160 145 123 107 98 92 89 85 81 77
313 309 313 315 318 317 311 309 306 303 301 293 288 276 259 245 237 235 238 237 233 234 231 228 234 244 265 316 257 233 216 220 222 222 222 225 223 216 220 227 225 219 218 220 221 218 219 220 221 222 216 215 223 221 218 219 217 216 214 215 211 197 193 195 190 190 195 198 199 200 197 187 176 172 168 165 153 133 117 106 97 93 88 83 77
295 292 302 304 306 307 304 306 302 301 301 288 276 271 265 255 241 234 232 234 237 237 235 236 235 226 223 249 283 235 275 269 237 224 221 224 224 220 221 224 221 219 218 221 224 221 220 221 222 225 221 216 219 221 219 218 218 218 215 214 212 200 194 192 189 190 193 199 202 200 198 189 178 176 172 167 159 142 127 116 104 94 86 80 73
285 294 302 296 302 309 306 309 306 300 299 293 288 277 261 253 249 240 234 234 237 238 236 236 232 223 223 232 236 229 277 317 302 241 219 226 228 226 226 225 222 222 220 220 224 222 219 220 222 225 223 215 214 217 220 221 219 216 211 210 208 201 195 194 191 190 191 200 204 201 198 190 180 178 174 168 162 148 137 124 110 98 88 79 72
284 286 296 297 297 299 298 303 304 303 301 294 292 290 278 263 254 247 239 235 233 232 231 227 221 220 225 231 237 239 245 266 279 294 240 230 234 235 234 230 225 222 222 221 220 220 218 217 220 223 222 216 213 215 219 223 222 213 207 209 208 200 196 196 194 190 192 200 204 201 198 190 183 179 175 170 163 153 143 132 123 115 106 90 76
296 282 288 298 298 298 299 302 304 304 304 298 292 287 282 278 270 260 246 235 230 229 227 221 213 218 224 228 234 240 244 250 261 283 312 250 234 237 236 234 231 223 222 223 222 221 217 213 217 219 218 217 218 220 219 221 224 217 211 216 215 202 195 196 195 190 194 202 202 201 197 189 183 180 176 171 163 156 143 140 143 140 130 117 104
286 275 280 288 293 295 288 288 297 301 301 299 297 295 290 285 282 279 262 243 232 227 225 220 214 215 217 221 229 237 245 253 259 266 272 272 259 238 232 232 233 226 221 223 227 225 218 215 215 214 215 218 218 222 223 221 224 223 218 219 220 205 194 193 195 192 196 201 199 199 196 188 184 181 178 172 165 157 146 148 155 153 146 139 135
262 269 277 268 273 286 284 279 278 279 283 292 297 298 299 294 284 282 280 267 248 234 230 226 222 221 217 216 222 228 235 246 252 250 252 261 269 270 248 228 242 238 226 223 227 226 220 216 212 209 214 219 219 221 224 223 222 223 223 220 217 206 195 192 194 193 198 201 197 196 193 187 186 183 178 175 166 158 154 157 160 158 156 152 149
229 256 266 251 260 277 286 285 285 283 277 281 294 294 293 296 289 282 280 278 270 254 240 233 229 229 225 220 220 223 224 230 237 239 240 241 249 266 257 256 283 266 241 226 224 222 217 216 212 208 211 216 221 222 221 224 223 222 226 224 217 207 197 193 194 196 200 200 196 194 190 186 185 184 179 175 168 164 164 164 162 163 163 159 157
214 229 240 243 260 270 280 284 291 296 284 274 280 283 281 281 283 286 285 279 276 268 248 235 231 231 230 227 225 226 226 229 233 236 235 231 233 251 246 246 271 278 266 239 228 223 215 212 209 204 209 215 220 223 221 222 222 222 227 226 218 208 199 195 195 199 201 199 195 192 188 184 183 182 179 175 172 170 168 166 166 168 166 162 163
218 222 235 246 260 267 275 279 278 282 281 276 273 272 272 271 273 281 285 284 281 276 263 246 237 233 231 231 230 229 228 228 229 229 228 225 226 239 245 243 253 273 292 277 246 234 216 207 206 203 208 213 214 219 220 219 219 222 227 223 215 206 200 197 196 199 202 198 195 192 187 184 182 181 179 176 175 174 172 173 175 176 176 178 187
232 237 243 245 252 258 268 276 277 277 276 276 275 275 274 272 270 272 274 277 279 278 274 265 253 242 235 231 231 232 231 229 226 223 224 224 224 231 241 250 256 264 277 276 262 254 228 212 208 206 207 207 212 219 215 213 217 221 223 218 208 203 201 199 197 199 202 198 195 193 189 186 183 181 180 178 178 178 179 183 187 189 192 200 216
238 243 245 246 253 263 273 278 279 281 280 279 278 279 279 275 271 270 271 272 272 274 274 270 266 257 246 240 236 235 234 231 227 224 226 229 231 233 235 242 256 260 261 248 224 243 250 236 214 208 209 206 214 221 212 210 215 217 218 212 202 199 201 202 199 200 203 200 195 192 189 187 185 182 182 183 183 184 187 192 196 198 203 212 226
240 245 248 251 258 267 275 277 278 280 283 284 282 280 281 280 277 274 272 271 271 271 270 269 268 264 258 251 243 239 237 233 231 229 230 233 235 237 235 232 235 245 250 240 198 209 243 256 236 214 209 207 212 216 208 209 213 211 209 204 198 197 200 201 200 201 203 201 197 193 189 187 185 184 186 188 187 188 191 196 202 205 210 213 221
241 247 252 256 263 269 272 274 276 281 283 284 284 282 282 282 281 279 274 272 273 272 272 270 268 264 261 256 247 242 241 237 235 233 232 233 234 236 235 233 231 233 240 239 230 197 208 239 255 236 214 209 212 212 208 209 209 203 199 198 196 196 199 201 199 200 202 201 197 193 189 187 186 188 191 191 189 191 195 201 206 209 211 210 215
241 249 257 262 269 272 274 277 278 281 284 284 284 283 283 282 280 279 279 277 277 276 274 272 271 267 262 258 251 244 242 240 237 235 233 231 231 232 234 234 231 230 234 239 238 222 205 217 249 259 235 213 204 202 204 204 198 194 195 196 196 195 197 200 199 199 201 200 197 193 189 189 190 191 193 192 191 195 202 207 209 210 209 208 211
245 254 261 266 271 273 273 277 279 279 281 283 284 284 283 282 279 279 280 281 280 278 275 273 273 273 267 261 255 247 242 241 237 234 232 230 229 230 231 233 232 230 232 236 244 234 216 205 224 244 250 222 199 190 196 198 190 192 199 199 197 196 196 198 199 199 199 198 197 194 191 192 193 193 194 195 196 201 208 213 212 209 208 208 208
250 256 261 264 270 273 273 274 276 278 279 280 283 285 284 282 280 278 279 280 280 279 278 275 273 274 274 270 264 254 246 241 236 233 231 229 229 230 230 230 232 232 231 231 242 244 229 216 213 220 226 218 200 190 194 193 186 193 203 203 198 195 193 195 199 199 198 197 197 196 194 194 195 195 196 197 200 207 213 214 212 209 207 208 209
251 254 259 265 270 273 273 274 274 274 277 279 281 283 284 283 280 278 277 278 278 278 278 277 275 276 280 280 276 267 255 244 237 232 230 228 227 229 231 230 230 231 231 229 235 248 243 238 232 226 222 211 200 195 192 184 182 191 200 201 198 195 193 194 196 198 197 197 198 196 194 195 196 197 199 200 204 211 214 212 210 209 208 209 212
250 255 261 267 272 273 274 275 275 273 274 277 280 282 282 281 280 278 276 274 275 275 276 276 276 276 279 281 281 277 268 259 248 237 231 229 229 230 231 232 232 231 229 228 230 237 240 238 234 232 224 204 195 196 192 184 185 193 197 195 195 194 195 195 194 196 198 199 199 196 195 197 199 199 200 203 208 212 212 211 209 208 209 211 214
253 258 264 270 272 274 276 276 276 276 277 276 278 280 280 278 277 276 274 271 271 272 273 273 273 273 274 276 278 278 276 272 264 251 238 232 232 233 233 233 232 232 229 227 227 228 231 231 226 220 208 195 192 194 195 190 190 193 194 193 193 192 193 193 194 196 198 199 199 197 197 199 200 201 202 207 212 213 210 209 208 209 212 214 217
257 261 266 270 272 273 275 277 278 280 281 280 279 279 278 277 275 273 272 270 269 268 268 269 270 270 271 271 272 273 274 274 271 264 253 241 235 235 236 234 232 232 231 227 225 223 224 226 220 211 197 186 186 188 187 187 189 191 190 187 188 190 191 191 194 197 198 198 199 200 200 201 201 202 205 210 213 211 209 208 209 211 215 219 222
259 264 268 270 273 276 278 281 284 285 285 283 280 278 276 276 276 274 273 270 268 267 266 266 266 266 268 269 268 267 269 271 270 268 264 255 243 237 237 237 232 230 229 225 224 222 220 220 215 207 197 185 182 184 182 179 179 180 181 181 183 187 190 192 195 197 195 195 198 201 201 202 204 205 208 212 211 209 208 209 211 214 217 222 226
259 264 269 273 277 281 284 287 288 287 286 283 279 277 276 275 276 275 273 270 268 266 266 265 264 263 264 265 266 264 264 265 265 264 265 263 255 243 237 237 235 233 229 224 223 224 222 219 210 196 190 187 183 179 179 180 175 169 171 175 182 187 191 195 196 195 194 194 195 198 199 201 205 207 208 210 210 209 209 210 213 217 220 223 228
261 267 274 278 281 284 286 287 287 286 286 283 279 278 276 275 275 273 271 268 267 266 266 265 264 262 261 261 263 263 261 261 261 260 260 262 262 255 244 238 235 234 233 229 228 228 224 219 209 191 184 187 185 178 178 180 177 174 172 170 172 182 191 197 197 193 193 195 195 197 199 202 204 206 207 208 209 210 210 212 215 219 221 224 228
265 272 278 283 285 286 286 286 286 285 284 282 279 277 275 273 272 271 269 267 266 265 265 265 264 263 262 260 259 260 259 259 258 258 257 257 260 262 256 245 237 233 231 228 229 231 227 220 214 198 186 187 185 175 174 175 173 179 181 174 171 178 187 194 197 193 192 194 195 196 198 200 201 202 204 205 208 210 212 215 218 220 222 224 229
271 277 281 286 290 291 290 288 287 286 283 281 279 276 274 273 271 270 270 269 268 267 266 265 264 262 262 261 258 258 258 258 257 256 256 255 257 259 259 255 249 240 233 226 224 226 225 224 223 206 188 186 183 171 170 178 181 183 182 177 176 180 181 184 191 194 194 193 192 193 195 198 199 200 202 204 206 209 212 215 218 220 222 224 229
278 282 285 288 291 292 292 290 288 287 285 282 279 277 276 276 275 272 271 270 270 270 270 270 269 265 263 261 260 259 259 259 258 257 255 254 253 255 257 258 259 256 247 237 229 225 221 220 221 210 194 190 186 178 178 185 187 182 180 180 177 173 172 171 180 193 196 193 190 191 195 199 200 202 204 207 209 210 211 216 218 220 222 225 231
281 285 290 292 292 291 292 292 291 290 287 284 282 281 281 281 280 275 270 267 265 265 266 267 269 269 267 265 263 262 261 260 260 259 258 255 252 251 252 253 254 256 257 254 244 236 229 223 214 204 201 198 189 184 184 185 185 183 182 181 175 169 171 172 174 188 197 196 191 190 196 202 204 206 208 211 214 214 216 220 221 221 225 229 232
287 290 295 296 294 294 294 294 293 291 289 287 285 285 285 286 285 281 274 268 264 263 262 261 263 265 267 267 266 264 262 261 261 260 259 258 255 253 250 248 248 251 254 255 253 248 241 236 224 206 201 202 195 189 186 185 186 186 184 181 179 178 180 183 182 187 194 195 191 189 195 202 204 207 211 214 216 218 221 225 224 223 226 226 222
291 294 298 297 296 296 296 294 292 291 289 288 285 285 286 286 286 287 284 276 269 266 263 260 260 261 262 264 265 263 261 262 263 261 259 258 258 257 253 249 247 248 250 252 255 254 249 244 239 224 209 202 199 196 192 189 186 183 182 183 185 186 188 192 193 191 190 189 188 186 192 200 202 205 211 214 216 220 224 225 224 222 220 219 217
298 302 303 299 296 295 292 290 290 290 289 288 287 287 287 286 283 282 283 281 276 271 268 264 261 261 260 260 262 262 261 261 262 262 261 258 257 257 254 248 245 246 248 249 251 255 254 247 243 241 228 211 202 200 199 195 191 187 185 186 189 191 194 198 198 194 187 187 187 184 186 197 199 201 208 212 215 222 225 222 221 219 214 217 223
307 307 301 297 294 293 292 291 291 290 289 289 289 288 288 288 285 280 278 278 277 273 270 266 263 261 260 259 259 260 260 258 257 258 261 262 261 261 258 249 242 242 246 248 248 250 251 248 244 242 239 227 215 207 202 201 200 195 191 192 193 192 191 189 188 188 187 188 188 184 184 193 195 197 203 206 211 223 225 219 219 220 218 223 230
305 303 300 298 296 294 294 294 293 290 289 289 290 290 290 290 288 283 279 277 276 272 269 267 265 262 259 257 256 257 257 256 255 255 258 263 269 274 274 265 251 242 241 246 248 247 247 248 246 243 241 238 228 213 203 202 201 196 191 191 189 183 175 168 168 176 183 187 190 189 184 184 189 193 194 195 203 215 216 208 208 216 222 226 232
311 307 304 300 299 297 296 296 295 294 293 293 292 292 291 291 289 285 280 276 274 271 269 268 266 263 260 256 255 255 255 254 254 254 255 259 267 275 278 277 270 256 245 244 247 248 246 245 245 245 244 240 232 218 206 203 201 194 185 180 179 177 171 165 163 172 179 183 187 191 186 177 182 188 187 188 201 209 205 197 198 210 220 224 230
321 312 307 303 300 300 299 299 299 297 296 296 295 293 291 291 289 284 279 275 271 269 270 268 265 263 260 258 255 254 253 253 252 253 253 255 262 269 273 275 275 270 258 245 239 240 240 239 239 239 238 234 230 221 210 205 203 197 190 185 182 179 174 172 168 167 174 182 186 188 185 175 179 184 182 179 188 196 193 190 196 208 215 219 224
319 313 310 306 303 303 302 301 300 299 297 296 296 295 294 295 293 287 281 273 266 265 267 266 264 262 260 259 255 252 251 252 252 252 250 252 258 262 267 271 270 270 268 252 236 231 229 224 222 222 220 217 217 214 208 206 206 203 200 196 188 181 176 173 165 155 160 188 190 189 185 174 173 178 178 168 161 182 191 192 195 204 211 214 216
Height
823 823 823 824 825 826 827 828 828 830 831 832 832 832 832 833 834 834 835 836 837 838 839 839 839 839 840 840 841 841 842 842 843 844 844 843 845 845 847 847 848 849 850 851 852 853 854 855 855 856 856 856 856 856 856 856 856 857 857 857 858 859 859 860 860 861 861 861 861 861 860 860 860 860 860 859 858 857 857 856 855 854 853 852 851
823 823 823 823 824 824 825 826 827 830 832 832 832 832 832 833 833 833 834 835 836 837 839 839 838 838 839 840 840 841 841 842 843 844 843 843 844 845 846 847 847 848 849 850 851 852 854 854 855 855 856 856 856 856 856 856 857 857 857 858 858 859 859 860 860 861 862 862 862 861 861 861 861 861 860 859 859 858 857 857 856 855 854 854 853
822 823 823 823 824 824 823 824 826 829 833 833 832 832 832 832 832 833 834 834 835 836 838 839 839 839 838 839 840 840 841 842 842 843 844 843 843 844 845 846 847 847 848 849 850 851 853 854 854 855 856 856 856 856 856 856 857 857 857 858 858 859 859 860 860 861 862 862 862 862 862 861 861 861 861 860 860 859 858 857 857 856 856 855 854
821 822 821 822 823 823 822 823 825 829 833 833 832 832 832 833 833 833 834 834 834 835 836 838 839 839 838 838 839 840 841 841 842 843 844 842 842 843 844 845 846 846 847 848 849 850 852 853 853 854 855 855 856 856 856 856 857 857 857 858 858 859 859 860 860 861 862 862 862 862 862 862 862 861 861 861 860 860 859 858 858 857 857 857 856
819 821 821 822 822 824 824 824 826 829 832 833 832 832 832 832 833 833 834 833 833 834 836 837 839 839 839 838 838 839 840 841 842 842 843 843 842 842 843 844 845 845 846 846 847 848 850 851 852 853 854 855 856 856 856 857 856 857 857 858 858 859 859 860 860 861 862 862 862 862 863 862 862 862 862 862 861 860 860 859 859 858 858 858 857
818 819 821 822 822 824 826 827 829 830 832 833 832 832 832 832 833 834 834 833 832 834 836 837 838 839 839 838 837 838 838 840 841 841 842 842 842 841 841 842 843 844 845 845 846 847 848 849 851 852 853 854 855 855 856 856 856 856 857 857 858 859 859 860 860 861 862 862 862 863 863 863 862 862 862 863 862 861 860 860 859 859 859 859 858
817 818 819 820 820 822 825 828 830 832 834 834 832 832 832 832 832 833 833 832 832 833 835 836 838 839 839 838 838 837 837 838 840 841 841 841 842 841 841 841 841 843 843 844 845 845 846 847 849 851 852 852 853 854 855 855 856 856 857 857 858 859 859 860 860 861 861 862 862 863 863 863 863 862 863 863 863 862 861 861 860 859 859 859 859
817 818 818 819 820 821 823 825 827 830 833 834 832 832 832 832 832 832 832 832 832 832 833 835 837 839 839 839 838 837 837 837 838 839 840 840 841 841 841 840 840 841 842 842 843 844 845 846 847 849 850 851 852 853 854 854 855 856 856 857 858 858 859 860 860 861 861 862 862 863 863 863 863 863 863 863 863 862 862 861 861 860 859 859 860
817 818 818 818 819 821 822 823 825 827 829 830 830 830 831 831 830 831 831 831 831 831 832 834 835 837 838 838 838 837 837 837 837 838 839 839 840 840 840 841 840 841 841 841 841 842 843 844 845 846 848 848 850 851 852 854 855 855 856 857 857 858 859 859 860 861 861 862 862 863 863 863 863 863 863 863 863 863 862 862 861 860 860 860 860
817 818 818 819 819 820 821 822 823 824 824 826 827 828 829 829 829 828 828 829 830 830 831 833 834 835 835 836 837 837 836 836 836 837 837 837 838 838 839 840 840 841 841 841 841 841 842 843 844 845 846 847 848 849 850 852 853 854 855 856 857 857 858 859 860 861 861 862 862 863 863 863 863 863 863 863 863 863 862 862 862 861 860 860 860
816 817 818 819 819 820 820 820 821 822 822 823 825 826 826 827 827 826 826 827 828 829 830 832 833 833 833 833 834 835 835 836 835 835 836 836 836 837 837 838 838 839 840 841 841 841 841 842 843 844 845 845 846 847 849 850 852 853 854 855 856 857 857 858 859 860 861 861 862 863 863 863 863 863 863 863 863 863 863 863 862 861 861 860 860
815 816 816 817 818 819 819 819 819 820 821 822 822 823 824 825 825 824 824 825 826 828 829 831 831 832 832 831 831 832 833 834 835 834 835 835 835 835 835 836 836 836 838 839 840 840 839 840 841 842 843 844 845 846 847 848 850 851 852 853 855 855 856 857 858 859 860 861 862 862 862 862 862 863 863 863 864 864 863 863 862 861 861 861 861
814 814 815 815 816 817 818 818 817 818 819 819 820 821 822 823 824 823 823 824 825 826 828 830 831 831 832 831 830 830 831 832 833 833 833 833 833 834 834 834 834 834 835 836 837 839 838 838 839 841 841 842 843 844 846 847 848 849 850 851 853 854 855 856 857 858 859 860 861 862 862 862 862 862 863 863 864 864 864 863 863 862 861 861 861
814 814 814 815 815 816 816 817 817 817 818 818 818 819 820 822 823 822 822 823 824 825 827 830 831 831 831 832 830 829 829 830 831 831 832 832 832 832 832 833 833 833 833 834 835 837 837 837 837 839 840 840 841 842 843 844 846 847 848 849 851 852 853 854 855 856 857 858 860 861 861 861 861 862 862 863 864 864 864 863 863 862 862 862 862
814 815 815 815 815 816 816 816 817 817 817 817 818 818 819 820 821 822 822 823 824 824 826 828 831 831 830 832 831 829 829 829 828 829 829 830 830 830 831 831 831 832 832 833 834 835 836 836 836 837 838 838 838 839 840 842 844 845 847 848 848 850 851 852 854 855 856 857 858 859 860 860 860 861 861 862 863 863 864 864 863 862 862 862 862
814 815 815 816 816 816 816 817 817 817 817 817 817 818 818 819 820 821 822 823 822 823 825 827 829 830 829 829 828 828 829 828 826 826 827 827 828 828 829 829 829 830 830 831 832 833 834 835 835 836 836 836 836 837 838 839 841 842 844 845 846 848 849 850 852 854 854 856 857 858 859 859 859 860 861 861 862 863 864 864 863 863 862 862 863
813 814 815 815 816 816 816 817 817 817 817 817 818 817 818 818 819 820 821 821 820 821 823 824 826 827 827 827 827 828 828 827 826 825 825 826 826 826 827 827 827 827 828 829 831 832 832 834 835 835 835 835 835 835 836 837 838 839 841 843 844 846 847 849 850 852 853 854 856 857 858 858 858 859 860 861 861 862 863 863 863 863 863 862 862
813 813 814 815 815 816 816 816 817 817 817 817 817 817 817 817 817 818 818 819 819 820 822 822 823 824 824 825 826 827 828 829 829 827 824 824 825 825 826 826 826 826 827 828 829 830 831 832 833 833 833 833 834 834 834 834 835 837 838 839 842 844 846 847 849 851 852 853 855 856 857 857 858 858 859 860 861 861 862 863 863 863 863 863 862
812 813 813 814 814 815 815 815 816 816 816 817 816 816 816 816 816 816 816 816 817 818 819 820 821 822 822 823 823 824 828 831 830 827 826 825 824 824 824 824 824 825 825 826 826 827 828 829 831 832 832 832 832 833 833 833 833 834 835 836 838 841 843 845 847 849 851 852 854 855 856 857 857 858 858 859 860 860 861 862 863 863 863 863 863
812 812 813 813 813 814 814 814 814 815 815 815 815 815 815 815 815 814 814 814 814 814 816 817 818 819 819 820 821 822 825 828 828 827 827 825 823 822 821 822 822 823 823 824 824 825 825 826 828 829 830 830 831 831 832 833 832 831 833 834 835 837 840 843 845 847 849 851 853 854 855 856 856 857 857 858 859 859 860 861 862 863 863 863 863
812 812 812 812 812 813 812 812 812 812 813 813 813 813 813 813 813 813 813 812 812 812 813 814 815 816 816 817 819 820 822 823 824 826 825 825 823 820 819 821 821 820 821 822 822 822 823 824 825 826 827 828 829 830 831 832 831 830 830 832 834 835 837 840 842 845 847 849 851 853 854 855 855 856 857 857 858 858 859 860 862 862 863 863 863
812 812 812 812 812 812 811 811 811 810 810 810 811 811 811 811 811 811 811 810 810 810 811 812 813 813 814 815 816 817 819 820 821 822 823 823 823 820 818 820 821 820 819 819 820 820 820 821 822 823 824 825 826 828 829 830 830 830 829 829 832 834 835 838 840 842 845 847 849 851 853 854 854 855 856 856 857 857 858 859 860 862 862 863 863
812 812 812 811 811 811 811 810 810 809 809 809 809 809 809 809 809 809 809 809 809 808 808 809 810 811 812 812 813 813 815 816 817 819 820 820 820 819 817 817 820 821 818 816 816 817 817 818 818 820 821 822 824 825 826 827 828 829 828 827 829 832 834 836 838 840 843 845 848 850 851 852 853 854 855 856 856 856 857 858 859 861 862 862 862
812 811 811 811 811 811 810 810 810 809 809 808 808 808 807 807 807 807 807 807 807 807 806 806 807 808 808 809 810 810 811 812 814 815 816 816 817 817 816 816 817 818 818 816 816 815 815 815 816 816 818 819 820 821 823 824 825 826 826 825 827 829 832 834 837 839 841 844 846 848 850 851 852 853 854 855 856 856 857 857 858 859 860 861 861
811 811 811 811 811 810 810 810 809 809 808 808 807 806 806 805 805 804 804 804 804 805 804 804 805 805 805 806 807 808 808 810 811 812 813 814 814 814 814 814 814 814 815 817 816 814 813 813 813 814 815 816 816 817 819 820 822 824 824 824 825 827 830 832 835 838 840 842 844 846 848 850 851 852 853 854 855 856 856 856 857 858 859 860 860
810 810 810 810 810 810 810 809 809 808 808 807 806 806 805 804 804 803 803 802 802 802 802 802 803 803 803 803 804 805 806 807 808 808 810 811 811 811 812 813 813 812 813 814 814 815 813 812 811 811 813 813 813 814 815 816 818 820 821 821 823 825 828 830 833 836 838 840 843 844 846 848 850 851 852 853 854 855 855 855 856 856 857 858 859
808 809 809 809 809 809 809 808 808 808 807 806 806 805 805 804 803 802 802 801 801 801 801 801 801 801 801 801 802 803 803 804 804 804 806 807 808 809 810 812 813 812 811 811 811 811 812 812 810 809 810 811 812 813 812 813 814 816 817 818 820 823 826 828 831 834 836 839 841 843 844 846 848 850 851 852 852 853 854 855 855 856 856 857 858
807 808 808 808 808 808 808 807 807 807 806 806 805 804 804 803 802 802 801 801 800 799 799 799 799 799 799 799 800 800 800 801 801 801 803 804 805 807 808 809 812 812 810 809 807 804 807 812 811 808 808 809 810 811 810 810 811 812 813 815 817 820 823 826 829 832 834 837 839 841 843 845 847 848 849 850 851 852 853 854 855 855 855 856 857
806 807 807 807 807 807 807 806 806 805 805 805 804 804 803 802 802 801 800 800 799 798 798 797 797 797 797 797 796 796 797 798 798 798 799 801 802 804 805 805 808 808 807 806 803 798 800 807 811 809 807 807 808 809 809 809 810 811 812 813 814 817 820 823 826 830 833 835 837 839 841 843 845 846 848 849 850 851 852 853 853 854 854 855 855
805 805 806 806 806 806 805 805 805 804 804 804 803 803 802 801 801 800 799 799 798 796 796 795 795 795 794 794 793 793 793 794 794 795 796 797 798 800 801 802 802 803 803 802 799 795 794 799 806 809 808 806 806 806 807 808 810 811 811 812 813 815 819 822 825 828 831 833 836 838 839 841 843 845 846 848 849 850 851 852 852 853 853 854 854
804 804 804 804 804 804 804 803 803 803 802 802 802 802 801 800 799 799 798 797 797 795 795 794 793 793 792 791 790 790 790 790 790 791 793 793 794 796 797 798 798 798 799 799 797 793 792 794 799 805 806 806 806 805 806 807 810 811 811 811 812 814 817 821 824 826 829 831 833 835 837 839 841 843 845 846 848 849 850 851 851 852 852 853 853
803 803 803 803 803 802 802 802 801 801 801 801 801 801 800 799 798 797 797 796 795 794 793 792 792 791 789 788 787 787 787 786 786 787 788 790 791 792 793 794 795 795 796 796 794 791 792 793 796 800 803 805 806 804 805 806 808 810 810 811 812 813 815 819 822 824 826 829 831 833 835 837 839 841 843 845 846 847 848 849 850 851 851 852 852
801 801 801 801 801 801 800 800 799 799 799 799 799 799 799 798 797 796 795 795 794 793 792 791 790 788 787 786 785 784 784 783 783 783 784 786 787 788 789 790 791 792 793 793 791 790 792 793 794 797 799 803 804 803 803 805 806 807 809 811 812 813 814 816 820 823 824 826 828 830 832 835 837 839 841 843 844 845 847 848 848 849 849 850 851
799 800 800 799 799 799 799 798 798 797 797 796 797 797 797 796 796 795 794 794 793 791 790 789 788 787 785 784 783 782 781 780 780 780 781 782 783 784 785 786 787 788 789 789 789 789 790 791 792 794 795 798 800 800 801 803 803 805 807 810 812 812 813 815 817 821 823 825 827 828 830 833 835 837 839 841 843 844 845 846 847 847 848 849 849
798 798 798 798 798 797 797 797 796 795 795 794 794 794 795 794 794 793 792 792 791 790 789 787 786 785 784 782 781 780 779 778 777 777 777 778 779 779 780 781 782 783 784 785 785 786 787 789 790 791 791 793 795 796 798 800 801 803 806 808 810 811 812 813 815 818 821 823 825 827 829 831 834 836 838 840 841 842 843 844 845 846 847 847 848
796 797 797 796 796 795 795 794 794 793 793 792 792 792 792 792 791 791 790 790 789 788 787 785 784 784 782 780 779 778 777 776 774 774 774 774 775 775 776 777 778 779 780 780 781 782 783 785 786 787 788 789 790 792 795 797 799 801 803 806 808 809 811 812 814 816 819 822 824 826 827 830 832 834 836 838 839 840 841 842 843 844 845 846 846
794 795 795 794 794 794 793 792 791 791 791 790 790 789 789 789 789 788 788 787 786 785 784 783 782 781 780 778 777 776 775 773 772 772 772 772 771 771 772 773 773 774 775 776 777 778 779 781 782 784 785 786 788 790 791 793 796 799 802 805 807 807 809 812 813 814 817 819 822 824 826 828 830 832 834 835 837 838 839 840 841 842 843 844 845
792 792 792 792 792 792 791 790 789 789 789 789 788 787 787 786 786 785 785 784 784 783 782 781 780 778 777 776 774 773 772 771 770 769 769 769 768 768 767 768 769 770 771 772 772 774 775 777 778 780 781 783 785 787 788 790 791 794 798 803 806 805 806 809 811 813 816 817 819 821 823 825 828 829 831 833 834 835 836 837 839 840 841 842 843
790 790 790 790 790 789 788 788 787 787 787 786 786 785 784 783 783 782 782 781 781 780 779 778 777 776 774 773 771 770 769 768 767 767 767 766 766 765 764 764 765 767 768 769 769 771 772 773 774 776 777 779 781 782 785 787 789 791 794 797 801 803 803 805 808 810 814 816 817 818 820 822 824 826 828 830 831 832 834 835 836 837 838 839 840
788 788 788 788 787 786 786 785 785 785 784 784 783 782 781 781 780 779 779 778 777 776 776 774 773 772 771 770 768 767 765 765 764 764 764 764 763 762 762 762 762 762 763 765 767 768 769 770 771 772 773 776 778 780 782 784 786 789 790 792 795 798 800 802 805 807 810 812 814 816 818 819 821 823 825 827 828 829 831 832 834 834 835 837 838
786 786 786 785 785 784 783 783 782 782 781 781 780 779 779 778 778 777 776 775 774 773 772 771 770 768 767 766 764 763 762 761 760 760 759 760 760 759 759 759 760 759 759 760 762 763 765 767 768 769 770 772 774 776 778 779 780 783 787 790 793 794 797 800 803 805 806 808 812 814 815 816 818 819 821 822 824 826 828 829 830 831 832 834 835
784 784 784 783 782 782 781 780 780 779 778 778 777 777 776 776 775 774 773 772 772 770 769 767 766 764 763 762 760 758 758 757 757 756 755 755 754 754 755 756 757 757 757 757 758 758 761 762 763 765 766 767 768 770 772 774 777 780 783 786 789 792 796 799 802 804 805 807 809 811 812 813 814 816 817 819 820 822 824 825 827 828 830 831 832
782 782 781 781 780 780 779 778 777 776 775 775 774 774 774 773 772 771 769 768 767 767 765 764 762 761 759 758 756 755 753 752 752 752 751 750 749 749 750 751 752 753 754 755 755 756 757 758 758 760 762 762 762 764 768 771 774 777 779 781 784 788 791 793 796 799 800 802 804 807 809 810 812 813 814 815 817 818 820 822 824 826 827 829 830
780 779 779 779 778 778 777 776 775 774 773 772 772 771 770 770 769 767 765 764 762 761 760 759 758 757 755 754 752 751 749 748 748 747 746 746 745 745 746 746 747 748 748 750 751 753 754 755 754 754 755 758 760 760 762 766 770 772 776 778 779 781 783 785 787 789 791 795 799 802 805 806 808 810 811 812 813 815 817 819 821 823 824 826 827
777 777 777 777 777 776 775 774 773 771 770 770 769 768 767 766 765 764 762 760 758 756 755 754 753 752 751 750 748 747 746 745 744 743 742 742 742 742 742 742 742 742 743 744 745 747 749 751 752 750 750 752 755 756 757 760 764 768 771 773 774 776 778 779 780 781 784 789 794 798 801 802 803 806 808 809 811 813 815 817 818 820 822 823 825
774 774 775 775 774 774 772 771 770 768 767 767 765 765 764 763 762 761 758 756 754 752 751 750 748 747 746 746 744 742 742 741 740 739 739 739 739 739 738 737 737 737 738 738 739 740 743 746 747 747 747 747 749 752 755 756 757 758 761 764 766 769 772 775 777 780 782 786 789 793 797 798 800 803 805 807 809 811 812 814 816 818 819 821 822
772 772 772 772 772 771 770 768 766 765 764 763 762 761 760 759 758 756 754 752 749 747 745 744 743 742 741 741 739 737 737 737 736 736 735 735 735 735 733 732 731 732 732 732 733 734 736 738 740 742 744 745 745 747 750 751 751 751 753 756 760 764 769 775 778 780 782 785 787 790 792 794 796 799 802 805 807 808 809 812 814 815 817 819 820
770 770 770 770 769 768 767 765 763 761 760 759 758 757 756 755 753 751 750 748 745 742 740 738 738 736 736 735 734 732 732 731 731 732 732 731 731 730 729 728 727 726 726 726 727 728 730 732 734 736 739 741 742 743 745 747 748 751 755 758 762 766 770 774 777 778 780 782 785 787 789 790 793 796 800 803 805 805 807 810 812 814 815 817 818
768 768 768 768 767 765 763 762 760 758 756 755 755 753 752 751 749 747 744 742 740 737 735 733 732 731 730 729 728 728 727 726 727 729 729 729 727 726 725 725 724 722 720 720 721 722 723 725 727 729 732 735 738 741 744 746 747 749 753 756 758 761 765 769 772 775 776 778 781 785 787 788 790 794 798 801 803 803 805 808 810 812 814 816 817
767 767 767 765 764 763 761 759 757 755 753 752 751 749 748 747 745 742 739 737 734 732 730 729 727 726 724 724 723 723 721 721 723 725 726 726 724 723 723 722 721 719 717 715 715 716 717 720 722 724 726 729 733 736 739 742 743 745 747 749 751 754 758 761 765 770 774 776 777 782 785 785 788 791 795 799 802 803 804 806 808 810 812 814 815
767 766 765 764 762 760 759 757 754 752 750 748 747 745 743 742 740 737 735 732 728 726 725 724 722 720 719 718 718 717 716 716 719 720 722 723 721 719 720 720 718 716 715 712 711 712 713 715 717 719 721 724 727 731 734 737 737 739 741 742 744 745 749 754 759 765 771 773 774 778 781 782 784 789 792 795 799 802 803 804 805 807 809 812 813